Location: Belltown
(34.0117°N, 117.3834°W)
Time: 22:32:17
(UTC+00:00)

Daily predictions for brighter satellites

Satellite Brightness Start Highest point End
(mag) Time Altitude Azimuth Time Altitude Azimuth Time Altitude Azimuth
Cosmos 1624 Rocket 4.3 12:20:01 10° S 12:25:15 66° ESE 12:30:32 10° NNE
Cosmos 1812 4.0 12:26:40 40° ESE 12:26:40 40° ESE 12:29:44 10° SSE
Cosmos 2056 Rocket 3.6 12:25:15 10° S 12:30:20 71° ESE 12:35:25 10° NNE
Lacrosse 5 2.0 12:30:27 66° NNE 12:30:46 68° NE 12:35:48 10° SE
USA 234 4.3 12:26:21 10° NNE 12:30:44 29° NNW 12:30:44 29° NNW
STARLINK-75 4.4 12:33:28 47° ENE 12:33:28 47° ENE 12:36:54 10° ESE
Cosmos 1933 Rocket 4.3 12:29:05 10° SSE 12:33:16 51° E 12:37:28 10° NNE
STARLINK-76 4.5 12:34:51 44° NE 12:34:51 44° NE 12:38:25 10° ESE
Cosmos 2263 Rocket 3.8 12:30:45 10° SSE 12:35:41 33° ESE 12:40:38 10° NE
STARLINK 4.4 12:36:27 46° NE 12:36:27 46° NE 12:40:06 10° ESE
STARLINK-32 4.3 12:38:03 48° NE 12:38:03 48° NE 12:41:47 10° ESE
Aureole 1 Rocket 3.8 12:36:37 47° NNW 12:38:30 83° WSW 12:45:41 10° SSE
STARLINK-41 4.2 12:38:41 49° NE 12:38:41 49° NE 12:42:36 10° ESE
STARLINK-40 4.2 12:39:38 50° NE 12:39:38 50° NE 12:43:26 10° ESE
STARLINK-37 4.1 12:39:50 53° NE 12:39:50 53° NE 12:43:45 10° ESE
STARLINK-64 4.1 12:40:10 51° NE 12:40:12 51° NE 12:44:12 10° ESE
STARLINK-44 4.1 12:41:13 52° NE 12:41:13 52° NE 12:45:07 10° ESE
Cosmos 1891 Rocket 4.5 12:35:04 10° SSW 12:41:26 62° W 12:47:45 10° N
Centaur D AC-28 4.0 12:39:55 29° SW 12:43:26 43° S 13:18:27 10° SE
STARLINK-36 3.9 12:44:24 55° NE 12:44:31 56° NE 12:48:27 10° ESE
CZ-4C R/B 3.6 12:40:06 17° NNW 12:45:59 54° NE 12:54:08 10° SE
ALOS 3.5 12:41:56 10° NNE 12:46:24 43° E 12:50:48 10° S
Cosmos 1464 Rocket 4.0 12:40:40 10° SSW 12:46:45 55° W 12:52:47 10° N
STARLINK-35 3.7 12:49:10 60° NNE 12:49:29 63° NE 12:53:27 10° SE
STARLINK 3.9 12:49:31 52° N 12:50:01 57° NE 12:54:02 10° ESE
STARLINK-51 3.7 12:50:46 61° N 12:51:08 66° NE 12:55:07 10° SE
STARLINK-30 3.6 12:52:23 62° N 12:52:49 68° NE 12:56:49 10° SE
H-2A R/B 2.2 12:53:31 34° SSW 12:54:02 36° S 13:00:33 10° ESE
STARLINK-33 3.6 12:53:58 62° N 12:54:28 71° NE 12:58:27 10° SE
STARLINK-50 3.6 12:55:34 61° NNW 12:56:08 74° NE 13:00:08 10° SE
COSMO-SKYMED 1 3.2 12:52:25 10° SSE 12:56:38 55° ENE 13:00:53 10° N
Gbstr 26 Del rocket 4.3 12:59:13 21° SSW 12:59:13 21° SSW 13:01:13 10° S
STARLINK-56 3.5 12:58:45 59° NNW 12:59:26 80° NE 13:03:27 10° SE
Starlink (trailer) 3.5 13:00:19 58° NNW 13:01:03 83° NE 13:05:04 10° SE
STARLINK-38 3.4 13:01:56 56° NW 13:02:44 87° NE 13:06:45 10° SE
COBE Rocket 4.0 12:59:03 10° S 13:03:51 50° W 13:05:22 36° NW
STARLINK-65 3.4 13:03:31 54° NW 13:04:23 89° NE 13:08:24 10° SE
CZ-4B R/B 4.2 12:59:09 10° NNE 13:04:34 50° E 13:10:01 10° S
Cosmos 1470 Rocket 4.2 13:00:58 10° SSW 13:09:00 13° N 13:09:30 10° N
SL-23 DEB 3.5 13:03:59 35° SSW 13:05:16 73° SE 13:08:21 10° NE
Okean O Rocket 2.6 13:01:13 10° NNE 13:05:27 48° E 13:09:42 10° S
Helios 1A Rocket 4.0 13:04:25 10° NNE 13:08:18 46° E 13:12:09 10° S
STARLINK-69 3.4 13:08:21 48° WNW 13:09:23 79° SW 13:13:23 10° SE
PAYLOAD B 4.3 13:05:00 10° NNE 13:10:32 78° ESE 13:16:04 10° S
Cosmos 2242 Rocket 3.5 13:06:03 10° N 13:10:37 89° W 13:15:06 10° S
FENGYUN 3A 3.8 13:05:21 10° NNE 13:10:45 77° ESE 13:16:07 10° S
STARLINK-66 3.4 13:09:54 46° WNW 13:11:01 78° SW 13:15:01 10° SE
BREEZE-M DEB (TANK) 2.5 13:13:39 45° SW 13:13:51 46° SW 13:16:55 10° SE
Cosmos 1862 Rocket 3.8 13:12:44 31° NW 13:14:21 45° W 13:18:37 10° SSW
STARLINK-70 3.5 13:14:38 40° WNW 13:15:56 68° SW 13:19:55 10° SE
Cosmos 1703 Rocket 4.2 13:12:31 10° N 13:16:55 58° E 13:21:15 10° SSE
Cosmos 1452 Rocket 3.9 13:11:52 10° S 13:17:05 67° ESE 13:22:19 10° NNE
STARLINK-68 3.6 13:16:23 38° WNW 13:17:40 61° SW 13:21:37 10° SSE
STARLINK-58 3.6 13:17:53 37° WNW 13:19:16 62° SW 13:23:14 10° SSE
SKYMED 3 4.4 13:16:26 10° S 13:20:45 75° W 13:25:05 10° NNW
STARLINK-62 3.7 13:19:34 35° WNW 13:20:59 57° SW 13:24:54 10° SSE
STARLINK-63 3.7 13:21:02 33° WNW 13:22:33 57° SW 13:26:30 10° SSE
GEOS 3 Rocket 3.7 13:18:41 10° SSE 13:23:40 57° WSW 13:27:10 20° NW
STARLINK-72 3.7 13:24:04 30° WNW 13:25:45 55° SW 13:29:40 10° SSE
NOAA 6 4.1 13:20:46 10° NNE 13:25:54 81° ESE 13:31:01 10° S
MOS 1-B 4.4 13:21:35 10° N 13:27:14 57° WNW 13:32:51 10° SSW
Nadezhda 4 Rocket 4.1 13:21:47 10° NNW 13:27:48 53° W 13:33:43 10° SSW
Cosmos 614 Rocket 4.0 13:24:02 16° NNW 13:28:00 54° WSW 13:32:58 10° S
Cosmos 1869 Rocket 3.6 13:23:58 10° S 13:28:16 79° E 13:32:35 10° N
STARLINK-59 3.9 13:27:22 28° WNW 13:29:07 48° SW 13:32:59 10° SSE
Cosmos 1602 4.1 13:25:50 10° S 13:29:36 66° E 13:33:24 10° NNE
Cosmos 407 Rocket 3.7 13:27:31 13° NNW 13:32:13 53° WSW 13:37:23 10° S
STARLINK-55 4.0 13:30:33 26° WNW 13:32:26 45° SW 13:36:15 10° SSE
SL-16 R/B 2.8 13:29:38 19° NW 13:32:54 34° WSW 13:37:57 10° SSW
Cosmos 1340 3.5 13:30:13 10° S 13:33:51 52° E 13:37:31 10° NNE
STARLINK-28 4.1 13:32:11 24° WNW 13:34:06 42° SW 13:37:54 10° SSE
STARLINK-53 4.2 13:35:21 22° WNW 13:37:23 39° SW 13:41:08 10° SSE
Cosmos 1140 Rocket 3.4 13:32:48 10° NNW 13:37:59 70° WSW 13:43:09 10° S
STARLINK-54 4.3 13:36:58 21° WNW 13:39:03 37° SW 13:42:45 10° SSE
Cosmos 1603 4.1 13:33:36 10° NNW 13:39:19 67° ENE 13:44:59 10° SSE
Cosmos 1484 Rocket 4.0 13:37:26 10° NNW 13:40:25 21° WNW 13:43:20 10° WSW
METEOR-M 4.3 13:35:54 10° N 13:41:04 51° WNW 13:46:13 10° SSW
DELTA 2 R/B(2) 3.5 13:40:52 34° NNW 13:41:13 40° NNE 13:43:05 10° E
STARLINK-34 4.4 13:40:08 20° WNW 13:42:19 34° SW 13:45:58 10° SSE
SKYMED 2 4.1 13:40:46 10° SSW 13:44:46 37° W 13:48:49 10° NNW
STARLINK-81 4.3 13:43:02 18° WNW 13:45:27 35° SW 13:49:08 10° SSE
SJ-7 4.2 13:42:53 10° N 13:46:54 79° WNW 13:50:52 10° SSW
STARLINK-77 4.4 13:46:14 17° WNW 13:48:45 33° SW 13:52:21 10° SSE
Cosmos 2026 Rocket 4.0 13:44:11 10° N 13:50:22 83° W 13:56:38 10° S
PSLV R/B 4.4 13:50:00 15° NNW 13:50:48 17° N 13:52:33 10° NE
Cosmos 2279 Rocket 4.0 13:47:27 10° S 13:53:38 89° E 13:59:52 10° N
SL-24 R/B 4.4 13:53:23 10° SSE 13:58:15 81° ENE 14:02:34 10° N
Cosmos 1634 Rocket 4.2 13:52:22 10° SSW 13:58:20 48° W 14:04:19 10° N
Cosmos 371 Rocket 4.2 13:58:22 10° S 14:03:03 54° ESE 14:07:47 10° NNE
Meteor 1-18 Rocket 4.2 13:59:50 10° NNW 14:05:21 71° W 14:10:53 10° S
Cosmos 1346 Rocket 2.8 14:02:33 10° SSW 14:06:21 57° W 14:10:10 10° N
Lacrosse 5 3.7 14:10:30 10° W 14:13:11 14° WSW 14:15:51 10° SSW
SMAP 3.0 14:11:42 10° N 14:16:22 79° WNW 14:21:00 10° SSW
